This is the latest recevied weather packets stored in our database for station/object SP3VBV-2. If no packets are shown the sender has not sent any weather packets the latest 10 day(s).
| Time | Temp. | Humidity | Pressure | Rain* | Wind** | Luminosity | Snow |
|---|---|---|---|---|---|---|---|
| 1777897332 | 24.44° C | 39% | 1011.5 hPa | - | - | - | - |
| 1777897316 | 24.44° C | 37% | 1011.5 hPa | - | - | - | - |
| 1777896716 | 24.44° C | 37% | 1011.7 hPa | - | - | - | - |
| 1777896116 | 24.44° C | 40% | 1011.7 hPa | - | - | - | - |
| 1777895516 | 23.89° C | 38% | 1011.9 hPa | - | - | - | - |
| 1777894916 | 23.89° C | 38% | 1012 hPa | - | - | - | - |
| 1777893754 | 23.89° C | 39% | 1012 hPa | - | - | - | - |
| 1777893716 | 23.89° C | 40% | 1012.1 hPa | - | - | - | - |
| 1777893116 | 23.33° C | 40% | 1012.3 hPa | - | - | - | - |
| 1777892516 | 23.33° C | 39% | 1012.5 hPa | - | - | - | - |
| 1777891916 | 22.78° C | 41% | 1012.3 hPa | - | - | - | - |
| 1777891317 | 22.78° C | 40% | 1012.6 hPa | - | - | - | - |
| 1777890202 | 22.22° C | 41% | 1012.7 hPa | - | - | - | - |
| 1777889524 | 22.78° C | 40% | 1012.8 hPa | - | - | - | - |
| 1777888323 | 22.22° C | 41% | 1012.9 hPa | - | - | - | - |
| 1777887723 | 22.22° C | 42% | 1012.9 hPa | - | - | - | - |
| 1777887123 | 22.22° C | 42% | 1013.1 hPa | - | - | - | - |
| 1777886523 | 22.22° C | 42% | 1013.1 hPa | - | - | - | - |
| 1777885923 | 22.22° C | 42% | 1013.2 hPa | - | - | - | - |
| 1777885323 | 21.67° C | 43% | 1013.4 hPa | - | - | - | - |
| 1777884723 | 21.11° C | 42% | 1013.4 hPa | - | - | - | - |
| 1777884123 | 21.11° C | 43% | 1013.4 hPa | - | - | - | - |
| 1777883523 | 21.11° C | 44% | 1013.4 hPa | - | - | - | - |
| 1777882923 | 20.56° C | 45% | 1013.3 hPa | - | - | - | - |
| 1777882323 | 20° C | 45% | 1013.4 hPa | - | - | - | - |
* Rain since midnight (hover to see other rain measurements)
** Current wind speed in m/s (hover to see current wind gust speed)